SCP
4 5 3 3 2 0 1 0 0 0 0 0 0 0 0 0 0 0 0 0 0 0
5 3 4 4 2 2 2 0 0 0 0 0 0 0 0 0 0 0 0 0 0 0
3 5 5 3 1 0 0 0 0 0 0 0 0 0 0 0 0 0 0 0 0 0
2 4 3 2 0 0 0 0 0 0 0 0 0 0 0 0 0 0 0 0 0 0
3 2 3 1 0 0 0 0 0 0 0 0 0 0 0 0 0 0 0 0 0 0
1 0 1 0 0 0 0 0 0 -0 0 0 0 0 0 0 0 0 0 0 0 0
2 1 0 0 0 0 0 0 0 0 0 0 0 0 0 0 0 0 0 0 0 0
0 0 0 0 0 0 0 0 0 0 0 0 0 0 0 0 0 0 0 0 0 0
0 0 0 0 0 0 0 0 0 0 0 0 0 0 0 0 0 0 0 0 0 0
0 0 0 0 0 0 0 0 0 0 0 0 0 0 0 0 0 0 0 0 0 0
0 0 0 0 0 0 0 0 0 0 0 0 0 0 0 0 -0 0 0 0 0 0
0 0 0 0 0 0 0 0 0 0 0 0 0 0 0 -0 0 0 0 0 0 0
0 0 0 0 0 0 0 0 0 0 0 0 0 0 -0 -0 -0 0 0 0 0 0
0 0 0 0 0 0 0 0 0 -0 -0 0 -0 -0 -0 -0 0 0 0 0 0 0
Wind_Speed_500mb
61 61 55 61 67 66 69 63 54 51 45 32 28 22 10 5 12 20 20 23 10 10
70 67 56 66 64 80 76 69 72 56 41 38 27 18 9 9 12 13 6 4 7 11
73 65 75 73 72 71 74 77 69 56 43 31 22 17 17 11 5 2 4 6 10 15
77 75 80 68 66 68 76 72 59 54 41 35 30 24 15 10 8 7 8 10 16 20
87 75 74 79 68 70 82 71 59 52 46 39 33 26 18 13 11 11 12 14 17 21
48 70 96 65 77 94 88 69 59 52 47 41 35 28 20 17 15 12 12 15 18 20
62 75 82 106 105 97 78 70 60 52 45 38 34 28 23 19 15 12 15 16 20 24
44 82 118 99 103 86 78 72 65 55 49 40 35 28 25 19 16 17 18 20 21 26
40 59 78 83 85 87 83 76 67 56 49 40 38 28 22 17 20 19 20 21 23 24
65 68 83 81 83 81 79 73 62 52 44 42 39 27 20 18 22 20 22 24 23 22
67 74 81 82 88 87 79 71 67 60 49 43 42 30 24 19 22 21 24 23 27 28
68 50 52 95 95 90 79 75 70 57 49 38 40 33 25 21 22 22 24 29 30 35
66 79 103 105 98 89 83 77 70 62 48 38 41 33 25 22 22 24 26 31 35 33
94 110 116 106 95 84 79 78 69 59 50 45 37 33 26 24 25 27 27 26 27 28
Wind_Direction_500mb
200 197 189 195 200 203 186 189 191 198 190 191 187 161 180 344 312 319 314 296 311 336
199 196 188 196 200 196 192 193 198 188 195 180 177 196 258 228 243 282 290 323 1 0
204 194 194 190 191 195 195 194 188 184 182 187 195 188 189 203 211 198 72 43 12 9
199 190 185 184 189 185 205 191 191 185 183 186 177 167 162 169 152 100 71 37 12 3
191 179 183 191 191 206 192 181 182 179 169 170 160 158 165 141 115 91 57 29 21 17
201 168 178 174 199 199 176 171 170 165 162 156 157 148 134 125 102 75 52 36 30 19
201 197 175 185 189 174 167 164 154 152 151 144 136 130 128 113 94 70 55 43 32 26
167 165 184 169 169 162 159 153 153 148 136 127 118 119 113 101 89 76 62 49 42 27
173 200 172 167 158 160 157 149 149 140 140 135 117 108 101 101 89 77 67 55 39 25
174 164 168 163 162 161 150 142 138 140 134 129 120 106 97 92 86 74 62 52 39 32
180 180 171 164 157 145 142 140 137 132 130 126 119 109 101 90 80 70 60 49 42 34
159 165 199 161 151 143 141 136 133 131 131 131 121 110 99 83 74 67 60 53 41 35
184 181 163 155 147 142 142 137 132 126 123 119 110 101 93 83 77 72 59 47 35 27
163 162 159 150 142 141 138 132 131 128 122 113 103 101 91 80 79 74 67 58 37 28
Wind_Speed_850mb
61 61 55 61 67 66 69 63 54 51 45 32 28 22 10 5 12 20 20 23 10 10
70 67 56 66 64 80 76 69 72 56 41 38 27 18 9 9 12 13 6 4 7 11
73 65 75 73 72 71 74 77 69 56 43 31 22 17 17 11 5 2 4 6 10 15
77 75 80 68 66 68 76 72 59 54 41 35 30 24 15 10 8 7 8 10 16 20
87 75 74 79 68 70 82 71 59 52 46 39 33 26 18 13 11 11 12 14 17 21
48 70 96 65 77 94 88 69 59 52 47 41 35 28 20 17 15 12 12 15 18 20
62 75 82 106 105 97 78 70 60 52 45 38 34 28 23 19 15 12 15 16 20 24
44 82 118 99 103 86 78 72 65 55 49 40 35 28 25 19 16 17 18 20 21 26
40 59 78 83 85 87 83 76 67 56 49 40 38 28 22 17 20 19 20 21 23 24
65 68 83 81 83 81 79 73 62 52 44 42 39 27 20 18 22 20 22 24 23 22
67 74 81 82 88 87 79 71 67 60 49 43 42 30 24 19 22 21 24 23 27 28
68 50 52 95 95 90 79 75 70 57 49 38 40 33 25 21 22 22 24 29 30 35
66 79 103 105 98 89 83 77 70 62 48 38 41 33 25 22 22 24 26 31 35 33
94 110 116 106 95 84 79 78 69 59 50 45 37 33 26 24 25 27 27 26 27 28
Wind_Direction_850mb
200 197 189 195 200 203 186 189 191 198 190 191 187 161 180 344 312 319 314 296 311 336
199 196 188 196 200 196 192 193 198 188 195 180 177 196 258 228 243 282 290 323 1 0
204 194 194 190 191 195 195 194 188 184 182 187 195 188 189 203 211 198 72 43 12 9
199 190 185 184 189 185 205 191 191 185 183 186 177 167 162 169 152 100 71 37 12 3
191 179 183 191 191 206 192 181 182 179 169 170 160 158 165 141 115 91 57 29 21 17
201 168 178 174 199 199 176 171 170 165 162 156 157 148 134 125 102 75 52 36 30 19
201 197 175 185 189 174 167 164 154 152 151 144 136 130 128 113 94 70 55 43 32 26
167 165 184 169 169 162 159 153 153 148 136 127 118 119 113 101 89 76 62 49 42 27
173 200 172 167 158 160 157 149 149 140 140 135 117 108 101 101 89 77 67 55 39 25
174 164 168 163 162 161 150 142 138 140 134 129 120 106 97 92 86 74 62 52 39 32
180 180 171 164 157 145 142 140 137 132 130 126 119 109 101 90 80 70 60 49 42 34
159 165 199 161 151 143 141 136 133 131 131 131 121 110 99 83 74 67 60 53 41 35
184 181 163 155 147 142 142 137 132 126 123 119 110 101 93 83 77 72 59 47 35 27
163 162 159 150 142 141 138 132 131 128 122 113 103 101 91 80 79 74 67 58 37 28